Location: Il Ritiro
(43.4167°N, 13.1333°E)
Time: 17:32:20
(UTC+00:00)

Daily predictions for brighter satellites

Satellite Brightness Start Highest point End
(mag) Time Altitude Azimuth Time Altitude Azimuth Time Altitude Azimuth
USA 215 4.0 19:17:55 10° ENE 19:23:25 28° SE 19:28:52 10° S
GEOS 3 Rocket 4.3 19:20:41 10° NE 19:25:35 34° ESE 19:30:26 10° S
ATLAS CENTAUR R/B 2.8 19:24:49 10° W 19:26:35 22° SW 19:29:14 10° S
ATLAS 5 CENTAUR R/B 2.0 19:23:05 10° S 19:26:49 36° ESE 19:30:54 10° NE
Cosmos 1844 Rocket 3.5 19:25:58 10° NNW 19:31:11 39° ENE 19:36:21 10° SE
USA 245 4.4 19:31:13 10° SE 19:34:01 26° ENE 19:37:24 10° N
H-2A ROCKET BODY 4.1 19:31:18 10° SW 19:35:22 23° SSE 19:45:52 10° ESE
Cosmos 1758 Rocket 4.3 19:32:15 10° SSE 19:36:22 36° E 19:40:30 10° NNE
Meteor 2-10 Rocket 3.7 19:31:31 10° N 19:36:35 60° ENE 19:41:47 10° SSE
Cosmos 1626 Rocket 3.8 19:33:29 10° SSW 19:37:56 78° W 19:42:26 10° N
Cosmos 1400 Rocket 4.0 19:35:29 10° NNE 19:38:52 26° ENE 19:42:04 11° SE
Lacrosse 5 rocket 4.2 19:37:43 10° WNW 19:40:50 19° NNW 19:43:50 10° NNE
Spot 2 Rocket 4.1 19:36:50 10° SE 19:41:38 44° ENE 19:46:28 10° N
BREEZE-M DEB (TANK) 4.3 19:35:03 10° SSW 19:41:40 26° SSE 19:44:20 10° E
OAO 3 Rocket 4.2 19:37:50 10° WSW 19:42:06 30° S 19:46:11 11° SE
Cosmos 1745 Rocket 4.0 19:39:58 10° S 19:46:06 70° E 19:52:20 10° NNE
Landsat 7 4.4 19:42:55 10° SE 19:47:24 44° ENE 19:51:56 10° N
Resurs 1-3 4.4 19:45:16 10° S 19:49:31 50° W 19:53:49 10° NNW
Cosmos 1125 Rocket 3.9 19:46:53 10° NNW 19:52:05 63° WSW 19:57:16 10° S
Meteor 1-21 Rocket 4.4 19:49:19 10° S 19:55:12 87° E 20:01:10 10° N
SPOT 1/Viking Rocket 4.0 19:51:15 12° SE 19:55:47 46° ENE 20:00:42 10° N
Cosmos 1953 Rocket 4.3 19:56:04 12° SSE 19:59:30 33° E 20:03:24 10° NNE
VEP-3 4.3 19:57:09 10° SSW 20:00:43 16° S 20:03:43 13° SE
Cosmos 2322 Rocket 3.2 19:55:33 10° SW 20:00:59 50° WNW 20:06:28 10° NNE
SL-08 ROCKET BODY 4.4 19:55:40 10° S 20:01:35 88° W 20:07:41 10° N
Alouette 2 Rocket 4.1 19:58:19 10° N 20:02:05 47° ENE 20:06:10 15° SSE
Cosmos 2237 4.3 19:57:53 10° SSW 20:03:37 84° WNW 20:09:24 10° NNE
OAO 2 Rocket 4.2 20:01:10 10° SW 20:05:47 31° S 20:09:32 14° ESE
Cosmos 1328 3.9 20:01:56 10° S 20:05:50 59° E 20:09:44 10° NNE
SAR-Lupe-2 3.9 20:07:34 10° NNE 20:11:02 44° E 20:13:37 16° SSE
Cosmos 1455 2.5 20:09:24 10° NNW 20:13:14 68° W 20:16:46 12° S
Cosmos 1825 Rocket 3.5 20:10:43 10° S 20:15:07 78° E 20:19:36 10° N
Cosmos 1703 3.3 20:15:53 10° S 20:19:45 81° W 20:23:39 10° N
ATLAS CENTAUR R/B 2.8 20:16:51 10° N 20:19:55 24° NE 20:22:16 14° E
COSMOS 2428 3.1 20:15:32 10° S 20:20:48 41° ESE 20:26:05 10° NE
SL-24 R/B - RUBIN 2 4.4 20:17:45 10° SSW 20:23:42 80° ESE 20:30:19 10° NE
Cosmos 2322 3.7 20:18:57 10° SSW 20:24:38 75° ESE 20:30:22 10° NNE
Cosmos 1844 3.7 20:19:38 10° NNW 20:25:27 82° ENE 20:29:32 20° SSE
Delta 2 Rocket 4.2 20:25:25 10° SW 20:28:03 21° S 20:28:10 21° S
CZ-4B DEB 4.3 20:28:15 26° SSE 20:29:58 72° ENE 20:33:20 10° N
Cosmos 1709 Rocket 4.0 20:24:53 10° S 20:31:09 86° E 20:37:34 10° N
NOSS 3-3 (A) 3.9 20:27:37 10° SSW 20:33:15 58° ESE 20:39:32 10° NE
NOSS 3-3 (C) 3.9 20:27:43 10° SSW 20:33:21 57° ESE 20:39:39 10° NE
Terra 2.4 20:31:40 22° SE 20:34:22 44° ENE 20:38:54 10° N
Cosmos 2237 Rocket 3.5 20:33:12 19° ESE 20:34:39 21° E 20:38:48 10° NE
CARTOSAT-1 3.6 20:32:57 24° SSE 20:35:30 70° ENE 20:39:49 10° N
Atlas Centaur 2 3.5 20:31:16 10° SW 20:36:16 26° S 20:38:47 21° SSE
Cosmos 2333 4.2 20:30:49 10° SSW 20:36:27 89° ESE 20:42:11 10° NNE
Cosmos 2219 Rocket 2.2 20:31:20 10° S 20:36:49 63° ESE 20:42:21 10° NNE
IGS 5A 4.1 20:35:34 16° S 20:38:44 52° W 20:42:49 10° NNW
Cosmos 2360 Rocket 3.2 20:33:27 10° SW 20:38:53 48° WNW 20:44:22 10° NNE
Cosmos 1538 Rocket 4.1 20:35:01 13° S 20:39:39 60° ESE 20:44:54 10° NNE
IRIS 3.8 20:40:41 10° WSW 20:43:18 49° SSW 20:43:18 49° SSW
DELTA 2 R/B (1) 4.1 20:39:34 10° SW 20:44:31 34° SSE 20:49:11 11° E
BREEZE-M (TANK) 4.4 20:42:01 14° SSW 20:45:35 41° ESE 20:59:16 10° ENE
Cosmos 2184 Rocket 4.5 20:42:26 23° SE 20:45:53 43° E 20:51:46 10° NNE
Cosmos 2333 Rocket 2.1 20:40:56 10° SSW 20:46:36 81° ESE 20:52:21 10° NNE
Resurs 01 Rocket 4.0 20:47:48 10° SW 20:50:48 18° W 20:53:48 10° NW
Cosmos 1315 Rocket 2.9 20:48:30 10° N 20:52:36 66° E 20:54:13 34° SSE
ATLAS 2AS CENTAUR R/B 4.1 20:45:53 10° NNW 20:52:45 34° NE 20:59:01 10° E
Cosmos-2242 4.1 20:51:54 10° NNW 20:55:58 40° W 20:59:05 16° SSW
Cosmos 773 Rocket 4.4 20:51:25 10° SSW 20:56:40 64° WNW 21:01:57 10° NNE
ERS-1 Rocket 3.2 20:56:51 24° S 20:59:55 67° WSW 21:04:58 10° NNW
Cosmos 2221 3.0 20:56:50 10° N 21:01:04 47° ENE 21:02:30 34° SE
USA 215 3.3 21:00:17 10° NE 21:06:53 84° NW 21:13:26 10° SW
Cosmos 1892 3.4 21:07:02 34° ESE 21:07:18 34° E 21:10:46 10° NNE
Cosmos 2278 Rocket 2.7 21:04:52 10° NNW 21:10:24 50° ENE 21:13:09 28° ESE
ATLAS 5 CENTAUR R/B 3.8 21:07:52 10° W 21:11:31 28° NW 21:15:32 10° NNE
Cosmos 1844 Rocket 3.9 21:10:03 10° NW 21:14:57 32° WSW 21:18:16 18° SSW
Gblst 52 Del rocket 4.5 21:10:27 10° WNW 21:16:12 72° NNE 21:20:33 21° ESE
SPOT 5 3.4 21:13:57 25° SSW 21:16:41 53° W 21:21:26 10° NNW
SL-16 R/B 3.8 21:18:56 17° E 21:19:02 17° E 21:22:37 10° ENE
Cosmos 2154 Rocket 4.2 21:23:04 33° SSE 21:25:40 56° E 21:31:43 10° NNE
Cosmos 2058 3.0 21:25:00 50° SE 21:25:44 60° E 21:29:49 10° NNE
Nadezhda 3 Rocket 4.3 21:20:14 10° N 21:26:29 55° ENE 21:29:11 33° SE
Cosmos 1408 3.4 21:29:06 35° E 21:29:06 35° E 21:32:06 10° NNE
BREEZE M DEB (TANK) 3.9 21:26:51 10° WNW 21:27:39 18° W 21:27:39 18° W
Meteor 2-17 Rocket 4.3 21:27:25 32° S 21:30:26 80° E 21:36:31 10° N
In-Cosmos 22 Rocket 4.0 21:29:55 37° S 21:32:04 78° E 21:37:24 10° NNE
Cosmos 2074 Rocket 4.0 21:29:16 26° SSW 21:32:58 81° W 21:39:14 10° N
Cosmos 1076 Rocket 3.4 21:36:08 55° SSE 21:36:56 71° E 21:41:12 10° NNE
TSX-5 3.8 21:33:23 10° NNW 21:36:57 68° ENE 21:37:36 56° ESE
Cosmos 1680 Rocket 3.5 21:35:42 41° S 21:37:26 65° ESE 21:42:42 10° NNE
USA 267 3.4 21:34:05 24° ESE 21:38:16 75° NE 21:44:50 10° NW
Cosmos 2151 3.7 21:47:18 38° E 21:47:25 38° E 21:51:24 10° NNE
Cosmos 2084 3.8 21:43:12 10° NW 21:47:32 51° WSW 21:48:05 48° SSW
Cosmos 1842 Rocket 4.3 21:43:40 10° NNW 21:47:47 43° W 21:49:02 34° SW
EO 1 Delta rocket 4.4 21:45:44 10° NNE 21:50:53 62° E 21:52:50 41° SSE
Cosmos 923 Rocket 4.2 21:52:20 29° SW 21:54:59 69° WNW 22:00:17 10° NNE
Cosmos 2327 Rocket 4.5 21:52:14 34° SSW 21:55:10 80° W 22:01:20 10° N
Cosmos 1825 2.4 21:58:09 55° ENE 21:58:09 55° ENE 22:01:36 10° NNE
ATLAS CENTAUR R/B 2.4 21:55:34 10° NW 21:58:26 29° WSW 21:58:26 29° WSW
ALOS 2 3.5 21:58:03 33° E 21:58:49 36° ENE 22:02:51 10° N
Cosmos 1980 3.8 21:56:55 29° SW 21:59:53 77° WNW 22:05:34 10° NNE
Cosmos 1151 Rocket 4.3 21:58:59 10° NNE 22:02:43 28° ENE 22:03:13 27° E
Cosmos 44 3.8 22:05:15 36° E 22:05:15 36° E 22:08:33 10° NE
COSMOS 2428 4.3 22:00:07 10° WSW 22:05:09 32° NW 22:10:13 10° N
Cosmos 1295 Rocket 4.4 22:06:31 41° S 22:08:52 86° W 22:15:01 10° N
GP-B 3.7 22:06:58 10° NNE 22:11:11 41° E 22:11:23 41° E
Terra 3.7 22:10:34 17° WSW 22:12:18 21° W 22:15:54 10° NW
NOSS 0 Rocket 4.5 22:07:31 16° SW 22:12:23 55° WNW 22:18:27 10° NNE
Cosmos 962 Rocket 4.4 22:12:15 44° S 22:14:27 83° E 22:20:51 10° N
Cosmos 1624 Rocket 4.0 22:10:35 10° NNW 22:15:50 77° ENE 22:16:57 55° SE
NOSS 3-4 (A) 3.8 22:09:19 10° NW 22:16:25 89° ENE 22:19:47 38° SE
NOSS 3-4 (C) 3.8 22:09:26 10° NW 22:16:32 89° NE 22:19:55 37° SE
Cosmos 2237 Rocket 2.6 22:14:58 25° SW 22:18:12 59° WNW 22:23:52 10° NNE
Genesis I 3.6 22:18:36 52° W 22:19:08 59° NW 22:23:00 10° NNE
Nimbus 7 Rocket 4.4 22:14:53 10° NNE 22:20:49 70° ESE 22:22:21 49° SSE
Cosmos 2344 3.4 22:16:02 24° SSW 22:21:00 88° SE 22:28:58 10° NE
Cosmos 2219 Rocket 4.4 22:16:54 10° W 22:21:14 23° NW 22:25:37 10° N
Atlas Centaur 2 4.4 22:19:52 10° WSW 22:21:21 15° SW 22:21:21 15° SW
Cosmos 1346 Rocket 4.5 22:28:04 23° ENE 22:28:04 23° ENE 22:30:38 10° NE
DELTA 2 R/B (1) 3.6 22:25:01 10° WSW 22:36:22 - E 22:30:03 56° SSW
Thor Agena Rocket 4.1 22:26:32 10° N 22:31:30 52° WNW 22:33:18 35° SW
BREEZE-M DEB (TANK) 3.2 22:39:23 10° WNW 22:41:22 29° NW 22:41:22 29° NW
Cosmos 1515 Rocket 4.2 22:38:51 10° N 22:43:00 42° ENE 22:43:15 41° E
Cosmos 1371 Rocket 4.3 22:38:23 10° NNW 22:43:31 54° WSW 22:44:15 50° SW
ATLAS 2AS CENTAUR R/B 2.8 22:36:54 10° NW 22:44:19 68° WSW 22:46:25 46° S
Cosmos 1766 Rocket 3.5 22:44:24 74° WSW 22:44:36 76° W 22:49:01 10° N
Okean 3 Rocket 3.8 22:47:03 58° WSW 22:47:26 61° W 22:51:51 10° N
Gbstr 26 Del rocket 4.0 22:49:28 31° ENE 22:49:28 31° ENE 22:51:48 10° ENE
Cosmos 1328 Rocket 3.4 22:46:05 10° N 22:50:25 87° E 22:50:25 87° E
Aureole 2 Rocket 4.2 22:47:39 10° NNW 22:48:59 25° NNW 22:48:59 25° NNW
Cosmos 1606 3.1 22:48:52 10° NNW 22:52:19 60° WNW 22:52:19 60° WNW
Cosmos 2218 Rocket 4.0 22:50:54 50° S 22:52:46 90° NW 22:59:08 10° N
Cosmos 864 Rocket 4.4 22:52:04 51° S 22:53:47 85° E 23:00:07 10° N
Cosmos 2278 Rocket 3.5 22:49:37 10° NW 22:54:07 25° WSW 22:54:59 24° WSW
Cosmos 2297 3.6 22:50:15 10° NNW 22:56:01 84° WSW 22:57:12 58° SSE
Cosmos 2366 rocket 4.0 22:56:35 49° SSW 22:58:27 86° W 23:04:51 10° N
Cosmos 2228 Rocket 4.2 22:54:26 10° N 22:58:40 35° ENE 22:59:19 33° E
Cosmos 1420 Rocket 3.9 22:54:29 10° NNW 22:59:48 85° WSW 23:00:36 65° S
Cosmos 1633 3.5 23:01:11 42° NE 23:01:11 42° NE 23:03:56 10° NNE
Lacrosse 5 rocket 3.8 22:58:54 10° NNW 23:01:55 20° NNE 23:04:49 10° ENE
SL-16 R/B 2.3 23:00:46 45° SW 23:02:30 70° WNW 23:08:12 10° NNE
Cosmos 1943 Rocket 2.7 22:57:06 10° NNW 23:02:41 55° ENE 23:04:40 37° ESE
Landsat 4 4.4 23:00:54 10° NNE 23:03:59 47° ENE 23:03:59 47° ENE
Cosmos 2056 Rocket 4.2 23:02:22 10° NW 23:07:23 40° WSW 23:07:58 38° WSW
Cosmos 1821 Rocket 4.5 23:05:52 38° SE 23:07:26 46° E 23:13:13 10° NNE
YAOGAN 11 4.0 23:09:09 73° E 23:09:20 75° ENE 23:13:45 10° N
BREEZE-M DEB (TANK) 4.4 22:57:47 10° SW 23:11:39 54° SSE 23:16:01 10° ENE
Cosmos 1743 Rocket 3.6 23:12:36 63° E 23:12:36 63° E 23:16:49 10° NNE
Cosmos 1048 Rocket 3.9 23:19:32 63° SSE 23:20:12 71° ESE 23:25:29 10° NNE
Cosmos 332 Rocket 3.6 23:16:20 10° NNW 23:21:08 84° WSW 23:21:28 77° S
USA 267 4.0 23:21:24 33° SW 23:21:36 34° SW 23:27:27 10° WNW
Meteor 2-3 Rocket 3.9 23:21:02 49° SW 23:22:23 65° WNW 23:28:03 10° N
Helios 1A 3.2 23:24:53 56° W 23:24:53 56° W 23:28:43 10° NNW
Cosmos 405 3.7 23:26:22 10° N 23:29:08 51° NNW 23:29:08 51° NNW
Cosmos 1340 4.1 23:34:23 29° WNW 23:34:23 29° WNW 23:37:34 10° N
Cosmos 1452 Rocket 3.5 23:29:22 10° NNW 23:34:34 63° WSW 23:35:06 59° SW
ALOS 2 4.3 23:35:27 22° W 23:35:27 22° W 23:38:40 10° NW
CZ-4C R/B 3.5 23:28:50 10° NNW 23:35:53 55° NE 23:43:57 10° SE
Meteor 2-6 Rocket 4.3 23:31:05 10° N 23:36:33 67° ENE 23:37:54 49° SE
PSLV R/B 3.4 23:32:19 10° NNE 23:36:34 81° ESE 23:36:34 81° ESE
COSMOS 2455 2.7 23:30:37 10° NNW 23:36:41 85° WSW 23:38:24 50° SSE
SL-16 R/B 4.2 23:31:39 10° ESE 23:36:44 27° ENE 23:41:51 10° N
Cosmos 1603 3.7 23:36:25 54° SSE 23:37:25 64° ESE 23:43:05 10° NNE
Cosmos 1110 Rocket 4.4 23:33:20 10° NNW 23:38:33 58° ENE 23:40:16 39° SE
Cosmos 1500 Rocket 3.7 23:44:49 59° W 23:45:00 60° W 23:49:23 10° N
Cosmos 1727 Rocket 4.3 23:40:26 10° NNW 23:46:28 53° W 23:48:04 43° SW
Resurs 1-4 Rocket 3.7 23:42:58 10° NE 23:47:05 22° E 23:48:44 19° ESE
Cosmos 2369 Rocket 2.1 23:41:35 10° NNW 23:47:13 84° ENE 23:48:49 49° SSE
ISS -1.6 23:51:00 20° ENE 23:51:00 20° ENE 23:52:13 10° ENE
Cosmos 371 Rocket 4.3 23:46:22 10° NW 23:50:25 31° W 23:50:25 31° W
SeaSat 1 3.4 23:46:23 10° NE 23:50:51 33° ESE 23:51:20 33° ESE
Cosmos 1000 Rocket 4.4 23:47:06 10° N 23:53:27 83° W 23:55:26 47° S
Helios 1B rocket 2.4 23:51:12 10° N 23:55:20 75° WNW 23:55:23 75° W
